Theta_e
329 331 334 335 335 335 334 333 331 328 328 329 329 332 334 335 333 332 331 328 327 323 321 319 316 317 316 314 312 311 313 312 310 309 308 307 308 310 312 314 317 320 323 328 334 338 338 337 336 334 334 336 337 336 336 337 334 330 329 327 327 330 329 327 328 328 328 326 325 324 323 320 324 331 330 329 327 323 325 330 331 331 330 331 331
326 328 332 334 334 334 334 332 330 328 327 326 328 332 334 334 332 333 330 328 329 324 320 320 318 317 315 314 313 315 321 319 314 312 312 311 313 316 317 320 323 323 324 330 335 337 338 336 335 334 335 337 336 335 335 333 330 328 329 328 329 330 329 329 328 328 327 325 323 323 323 321 324 329 329 328 327 324 327 330 331 331 331 331 331
325 327 330 332 332 333 334 332 330 327 326 328 331 333 334 333 332 332 329 329 330 326 321 321 321 319 318 317 317 322 326 323 320 322 320 317 318 322 324 327 328 325 325 332 336 337 338 336 334 334 335 334 333 334 332 328 328 329 329 329 329 330 330 329 327 326 324 322 321 320 321 322 325 328 329 328 326 325 326 330 331 332 331 331 331
325 326 328 331 331 332 334 333 330 326 327 330 332 332 332 332 332 331 329 330 331 328 326 324 325 324 324 324 324 326 327 325 326 330 326 321 320 323 327 329 331 328 327 333 337 337 338 336 335 335 333 331 330 331 330 327 328 329 329 329 329 329 329 327 326 323 320 319 318 318 319 323 325 328 329 326 325 324 326 330 332 332 331 332 333
325 326 328 328 328 331 333 333 330 328 329 330 331 331 331 331 331 330 329 331 331 329 329 328 327 327 328 329 329 327 326 328 330 332 330 326 324 323 327 329 332 332 331 335 337 338 337 336 336 335 332 330 329 330 329 328 328 328 328 329 329 328 327 326 323 319 317 316 317 317 318 322 326 330 330 325 324 325 327 330 332 332 332 333 334
325 327 328 326 325 330 332 331 327 327 328 328 331 331 331 331 330 329 328 330 330 329 329 329 327 328 330 331 330 326 327 330 331 333 332 330 330 327 329 331 333 335 335 336 336 338 338 337 337 334 332 330 331 330 329 328 327 327 327 327 327 326 326 324 320 317 315 315 316 316 317 323 326 329 329 324 324 326 329 331 332 332 332 333 334
324 326 328 326 325 328 331 328 323 326 329 329 331 331 331 330 329 328 326 327 328 328 328 329 328 328 329 330 330 325 326 332 332 333 332 332 334 332 334 336 336 337 337 336 336 338 338 336 335 334 333 332 331 330 328 327 326 326 326 326 326 325 324 322 319 316 315 314 314 315 318 323 324 328 328 323 325 328 330 332 332 332 333 334 333
323 326 326 326 325 326 329 326 324 328 331 330 330 330 330 329 328 326 325 325 326 327 327 329 330 329 327 328 329 324 325 332 333 332 333 335 336 336 337 338 338 339 337 337 337 337 337 335 334 334 334 332 330 327 326 325 325 325 325 325 325 325 323 322 319 317 316 314 314 315 319 322 325 329 326 323 328 330 331 332 332 333 333 333 334
321 324 324 325 324 323 327 326 325 328 330 329 330 330 328 327 327 326 325 325 326 327 328 329 330 330 330 329 329 323 324 331 332 332 334 337 337 337 338 338 339 339 338 337 336 336 336 336 335 334 333 331 329 326 324 324 324 325 325 324 324 324 323 321 318 317 318 317 316 317 320 323 326 329 325 325 330 330 332 333 332 333 333 333 333
318 321 323 324 324 323 327 328 326 328 329 327 329 329 328 327 327 327 327 327 326 327 329 330 329 330 331 330 328 322 324 330 331 332 334 336 337 337 337 338 338 338 338 337 337 336 335 336 335 334 333 330 328 327 325 323 324 326 326 323 322 322 322 320 318 317 317 318 320 320 321 323 325 328 325 325 330 331 332 332 333 333 332 333 333
316 319 323 325 325 324 326 329 327 328 328 327 328 328 327 327 327 327 329 329 326 326 327 330 330 330 331 330 327 322 323 328 331 332 333 334 335 336 336 337 337 337 337 336 337 336 335 335 335 334 331 329 330 328 323 323 325 327 325 321 320 321 321 320 319 316 315 318 321 320 321 322 325 328 325 324 329 330 331 332 332 332 332 333 333
315 319 323 326 325 324 326 328 327 328 328 327 326 326 328 329 328 327 328 329 327 326 326 329 330 330 331 329 327 323 322 325 329 332 332 333 334 334 335 335 335 336 336 336 336 335 335 334 333 332 329 330 329 324 321 323 326 325 321 320 320 321 321 321 319 316 315 318 322 321 322 324 325 327 324 323 328 328 330 331 331 331 331 332 332
317 319 324 327 324 326 328 328 328 328 327 326 325 325 327 327 326 326 328 329 327 327 325 328 329 330 331 327 325 324 322 323 327 330 332 332 333 333 334 333 333 334 335 335 335 334 333 332 332 329 327 328 325 320 320 323 324 321 319 320 321 321 322 321 319 317 315 318 322 322 323 325 326 326 324 324 326 326 328 329 330 331 331 331 330
319 321 325 328 325 327 329 328 328 328 327 326 325 323 322 323 325 325 327 328 327 327 325 326 327 329 329 325 322 323 322 323 327 330 331 332 332 333 333 332 333 333 334 335 334 334 333 331 330 327 325 325 322 319 319 320 320 320 320 321 321 321 322 321 319 318 315 316 319 320 320 322 324 325 324 325 325 325 327 328 329 330 330 330 328
322 324 327 328 327 329 329 326 326 328 328 327 326 323 320 319 323 325 324 326 327 326 325 326 327 328 327 323 320 322 323 324 328 330 331 332 331 332 332 332 332 332 333 334 334 334 333 330 329 327 325 323 321 319 319 319 319 320 321 321 321 321 321 320 318 316 315 315 316 318 317 318 320 322 323 323 324 325 327 327 328 328 328 328 327
324 325 328 330 328 328 326 325 327 329 328 328 327 325 322 318 319 322 322 324 327 326 325 326 327 326 325 322 320 321 323 326 329 330 331 331 331 331 331 332 331 331 331 332 333 332 331 329 328 328 327 324 320 318 318 318 319 320 321 322 322 322 320 318 317 315 315 316 316 318 319 321 321 321 322 321 322 324 326 326 325 325 325 325 325
326 325 329 330 327 326 325 325 328 329 328 328 328 324 322 319 318 319 320 322 325 326 325 325 325 325 324 321 320 322 324 327 330 330 330 330 330 330 331 332 330 329 329 328 328 328 328 327 326 326 328 327 321 318 319 320 321 322 322 323 322 321 319 317 314 312 315 318 319 321 323 324 324 324 323 320 319 321 323 323 322 322 322 322 323
326 326 330 329 326 325 325 326 327 328 328 327 327 324 320 321 320 319 320 322 324 325 325 324 324 324 323 322 322 322 325 328 330 330 330 330 330 330 331 331 329 327 325 324 323 322 320 321 323 323 325 328 324 321 321 321 323 323 323 323 322 321 319 316 313 311 315 320 321 323 324 324 324 324 323 319 316 318 320 321 322 322 320 319 320
326 327 330 329 325 324 324 325 325 326 327 326 326 324 321 322 321 317 320 322 322 324 323 323 324 322 320 321 322 322 325 328 329 330 329 330 330 330 330 330 327 322 320 318 315 313 311 312 315 316 321 326 325 323 322 322 323 323 323 322 321 320 318 315 311 309 315 320 322 323 323 322 322 322 321 317 317 318 319 320 320 319 317 316 318
326 326 330 330 326 325 323 323 324 325 325 325 324 323 321 324 322 316 318 321 321 321 320 320 322 321 318 319 322 321 324 327 329 329 329 329 329 329 329 329 324 318 315 311 308 307 307 308 308 311 320 324 323 322 322 322 322 322 322 322 320 319 316 313 311 309 314 320 321 321 320 321 320 321 321 319 320 319 318 319 318 317 318 318 318
325 326 330 331 329 326 323 322 323 323 325 324 323 323 321 324 324 315 317 321 321 320 319 320 321 319 316 315 320 321 322 326 329 328 329 328 329 329 328 327 322 317 316 311 308 309 310 309 306 309 318 322 322 322 322 321 322 321 321 321 320 318 314 312 314 312 312 318 319 319 319 318 319 321 321 320 320 318 317 318 318 318 319 319 318
326 327 329 331 330 328 324 323 323 322 323 324 323 323 322 324 323 317 318 322 322 319 319 322 322 318 314 310 315 320 319 322 327 328 328 328 328 328 328 326 320 318 317 312 310 310 309 308 306 306 310 316 319 320 320 320 320 320 320 319 317 314 312 314 317 314 312 316 319 318 319 318 318 321 321 320 319 317 317 318 317 319 319 318 318
325 326 328 329 330 329 327 325 325 324 322 324 324 324 323 322 323 320 318 321 322 321 319 322 323 320 315 310 310 315 316 318 323 327 328 328 328 327 327 324 321 321 318 313 311 308 306 305 305 305 306 312 317 318 318 318 318 318 317 316 313 311 313 317 317 315 316 319 320 319 319 318 318 320 320 318 317 316 317 318 317 318 318 317 316
323 325 326 328 330 330 329 328 328 326 323 323 323 324 324 323 324 322 320 321 322 323 321 321 322 321 316 310 306 306 309 312 319 324 326 327 327 326 325 322 321 323 323 319 316 311 307 305 304 306 309 312 314 315 316 316 317 316 315 313 312 312 316 319 315 315 319 320 321 320 319 318 317 320 319 316 316 316 317 317 317 317 318 317 316
320 324 326 327 328 329 330 329 329 327 323 322 322 323 324 324 325 323 323 323 324 324 322 321 322 320 314 309 306 306 305 307 317 323 324 326 327 326 325 322 322 324 325 323 322 317 310 306 305 308 312 312 312 313 314 314 314 314 314 313 313 315 317 318 315 315 319 320 321 320 319 319 318 320 318 315 315 314 315 316 316 317 318 318 317
320 322 325 326 327 328 329 328 329 327 324 322 321 322 323 324 324 324 324 324 325 324 321 321 320 316 312 310 310 310 307 306 316 322 323 326 327 327 325 324 324 325 326 324 322 319 313 308 305 307 311 313 312 312 313 311 311 312 313 314 315 316 318 318 315 316 319 321 322 321 320 320 319 319 318 317 316 314 315 317 317 318 317 318 317
317 320 324 326 325 327 328 327 328 326 324 323 322 321 322 323 323 323 324 324 324 323 321 320 316 312 310 310 308 308 307 306 315 322 324 327 327 326 325 324 325 325 324 322 320 316 312 309 305 305 309 311 311 312 312 309 308 311 312 314 315 315 317 317 315 317 319 320 322 322 321 320 319 318 318 319 318 317 318 319 318 317 316 317 316
313 317 322 326 325 325 327 327 326 325 325 325 323 322 321 323 324 324 324 324 324 323 322 319 315 312 310 308 307 308 308 308 316 323 324 326 326 325 324 323 324 324 323 320 320 318 315 312 307 305 306 308 310 310 309 307 308 311 311 312 312 313 315 316 315 317 319 320 322 322 321 321 319 318 319 319 318 319 319 319 318 317 316 316 315
310 315 321 325 325 325 326 327 326 326 325 325 324 323 322 323 324 325 325 325 324 323 322 319 316 313 312 309 308 309 308 310 318 322 324 325 325 324 324 323 323 323 322 320 321 320 316 313 310 306 304 305 306 307 308 307 309 311 311 311 310 312 314 315 316 317 318 320 322 322 321 321 320 319 318 318 319 319 318 319 319 318 317 316 315
309 313 320 323 324 325 326 327 327 326 325 325 324 324 323 323 323 324 325 324 323 322 321 320 317 315 315 313 311 311 311 315 320 321 322 324 324 324 323 323 323 322 322 322 321 319 316 313 310 307 305 305 305 306 308 309 310 311 311 310 310 311 313 315 316 316 318 320 322 321 321 320 320 319 318 317 318 318 318 319 319 319 318 316 316
309 311 318 323 324 325 325 326 327 325 325 325 324 324 324 324 323 324 324 323 322 322 321 320 318 315 315 316 316 314 313 319 322 320 321 323 324 324 323 323 323 322 321 321 321 319 317 314 309 307 305 304 305 306 308 310 311 311 310 310 310 311 312 315 316 316 317 320 321 321 320 320 319 319 318 317 317 318 318 319 319 318 317 316 316
309 310 314 321 324 325 325 326 327 326 326 325 324 324 324 324 324 324 324 321 320 322 321 319 318 316 314 315 316 315 312 316 321 322 323 324 324 324 323 322 322 321 321 321 320 317 316 313 309 307 305 304 304 306 307 309 310 310 310 310 310 311 312 314 316 316 317 319 320 320 320 319 319 318 318 317 317 317 317 318 318 318 317 315 315
309 309 312 317 322 325 326 326 326 326 327 325 324 324 324 324 323 324 323 321 321 322 321 320 319 317 315 314 314 314 312 313 319 323 323 323 324 324 323 323 322 321 321 321 320 316 313 311 309 306 304 303 303 305 306 308 309 308 309 310 310 311 312 314 316 317 317 318 319 319 319 319 318 318 317 317 318 318 317 317 318 318 317 316 316
309 309 311 313 318 323 325 326 325 326 327 326 325 324 324 324 323 323 323 322 322 322 321 320 319 318 317 316 314 315 313 312 318 322 323 323 323 324 323 323 323 322 323 322 319 316 312 308 307 306 304 303 302 303 304 306 308 308 309 310 311 311 311 313 315 317 317 318 319 319 319 318 317 316 316 317 318 317 318 318 318 318 318 317 317
310 310 310 311 314 320 323 324 324 325 327 327 326 325 324 324 323 324 323 323 322 322 322 321 320 319 318 318 316 317 315 314 318 320 321 322 323 323 323 323 323 323 321 319 315 313 312 308 305 305 303 302 303 303 304 306 307 308 309 309 310 310 310 312 314 316 317 317 318 318 318 318 317 315 315 316 317 317 318 318 318 318 318 317 317
309 310 310 311 312 319 322 323 323 324 324 325 326 325 324 324 323 324 324 323 323 322 322 321 321 320 320 319 318 318 317 315 318 319 319 320 322 322 321 321 320 319 317 314 309 309 311 308 304 304 303 302 303 303 305 307 307 308 307 307 308 308 309 311 313 315 315 316 317 317 317 317 316 315 314 314 315 316 317 318 318 319 318 317 316
308 309 310 311 311 316 320 322 323 324 323 323 325 325 325 324 323 324 324 324 323 323 322 321 321 321 321 320 319 318 317 317 318 318 317 318 321 322 320 318 315 313 312 310 306 304 307 307 304 302 302 301 301 302 304 306 307 307 306 307 308 308 308 310 313 314 315 315 316 316 317 316 315 315 314 315 315 316 317 318 318 318 317 317 316
308 308 309 311 311 313 317 320 322 324 326 323 324 326 325 324 324 323 324 324 323 323 322 321 321 322 321 321 320 318 316 317 318 318 316 316 318 319 318 314 310 308 308 306 303 301 302 304 304 302 301 300 299 300 301 303 306 307 307 308 308 308 309 309 310 312 313 314 315 315 316 315 314 314 315 315 315 316 316 317 317 317 317 317 316
308 308 309 311 313 313 315 318 319 322 326 325 324 325 323 323 325 324 323 324 324 323 322 321 321 322 322 321 321 319 317 317 317 316 314 314 314 315 314 311 308 308 308 306 302 299 299 302 303 302 301 300 298 299 300 302 305 307 308 308 308 308 309 309 309 310 311 311 313 314 315 315 314 314 314 314 315 315 315 316 316 317 317 316 316
308 308 309 310 312 314 315 318 320 321 323 325 325 325 323 322 324 324 324 323 324 323 322 321 321 322 322 321 320 321 319 318 317 315 314 314 314 314 312 310 308 307 308 307 303 299 298 300 301 301 302 300 299 299 300 301 304 307 308 308 308 308 309 309 309 309 309 309 310 311 313 314 314 312 312 311 312 313 313 314 315 316 316 315 315
309 309 309 310 311 313 314 317 321 322 322 324 325 325 325 323 323 324 324 324 324 323 322 321 321 321 322 322 321 321 320 320 319 318 316 316 315 314 312 309 306 303 303 303 301 299 298 298 298 300 302 301 300 301 301 302 303 305 307 308 307 306 307 308 308 308 308 308 308 308 309 310 310 310 308 308 308 309 309 311 312 313 313 313 312
309 309 309 309 310 311 312 313 317 321 322 323 325 325 325 324 322 323 324 324 324 323 322 321 321 321 322 322 322 321 321 320 320 319 318 316 315 315 315 313 309 303 301 299 297 297 298 297 297 299 302 300 300 301 301 303 304 304 304 306 305 304 303 303 305 305 305 306 306 306 306 306 305 305 304 304 304 304 305 305 306 307 307 307 307
309 309 309 309 310 310 311 312 313 317 319 322 324 323 323 325 323 321 323 324 323 323 323 322 321 321 321 322 321 321 321 320 320 319 319 318 317 318 318 317 315 312 310 306 302 298 297 297 297 298 301 300 299 300 300 302 304 304 303 303 303 303 302 300 300 301 302 302 302 302 302 301 301 301 300 300 300 300 300 300 300 301 301 301 301
310 309 309 309 310 310 310 311 312 313 315 318 321 321 322 324 324 322 322 323 323 322 322 322 321 321 321 321 321 321 321 320 320 320 320 320 319 319 319 318 319 318 317 316 312 307 301 297 297 298 300 299 299 299 299 300 301 302 302 301 299 298 299 299 299 299 299 299 299 299 299 298 298 298 298 298 298 299 299 299 299 299 299 299 299
310 310 310 310 310 310 310 310 311 312 312 314 317 319 322 324 324 324 323 323 323 322 321 321 321 321 321 321 321 321 321 321 321 320 320 320 320 320 319 319 319 319 318 318 317 314 309 301 297 297 300 299 299 299 298 298 299 299 299 298 297 296 298 299 299 298 298 298 298 298 298 298 299 299 299 300 300 300 299 300 300 300 300 300 300
311 311 311 311 311 310 310 310 310 311 311 311 313 317 321 324 323 324 325 324 324 322 321 321 320 321 321 320 321 321 321 321 320 320 320 320 320 319 319 319 318 318 319 318 317 316 314 308 300 297 298 299 299 299 299 298 298 298 298 298 299 300 300 300 299 298 298 298 298 299 299 300 300 300 301 301 301 301 301 301 301 301 301 301 301
311 311 311 311 311 311 310 310 311 311 311 310 311 314 318 322 323 323 323 324 324 323 321 321 321 321 321 320 321 321 321 320 320 320 319 319 319 319 319 318 318 318 318 318 317 316 315 312 303 297 297 298 298 299 299 299 298 298 298 298 301 304 303 302 302 301 300 299 299 300 300 301 301 302 302 302 302 302 301 301 302 302 303 303 303
311 311 311 311 311 311 310 310 310 311 311 310 311 314 315 318 321 322 323 323 324 324 322 321 321 321 320 321 321 321 321 320 320 320 319 319 319 319 319 318 318 317 317 317 317 316 315 312 303 297 297 297 297 298 298 299 299 299 299 298 300 304 304 303 305 304 303 302 301 300 301 301 302 302 303 303 303 303 304 304 305 306 306 307 307
311 311 311 311 311 311 310 310 310 310 311 311 311 313 315 316 319 321 323 324 324 324 323 322 321 321 320 321 321 321 321 320 320 320 319 320 320 319 319 319 318 317 317 317 317 316 316 313 305 297 296 296 296 297 298 299 300 300 300 299 300 303 304 304 305 304 304 303 302 301 301 301 301 303 305 306 306 307 307 307 307 307 307 307 307
311 312 311 311 311 311 311 311 310 310 311 311 311 311 313 315 318 319 321 322 323 323 323 323 321 320 320 321 321 321 321 320 320 320 319 319 320 320 319 319 318 318 317 316 317 316 316 315 310 300 296 296 296 296 297 298 299 299 300 301 302 303 304 305 305 304 303 302 302 302 301 302 304 306 308 307 307 307 306 306 306 305 305 305 305
311 311 311 312 312 311 311 311 310 310 310 311 311 311 312 313 315 318 320 320 321 322 322 323 322 321 320 320 321 321 321 321 320 320 319 319 319 319 319 319 319 318 317 317 317 317 315 316 313 304 297 296 297 296 297 297 298 298 301 304 306 306 305 305 305 304 302 302 302 301 302 305 308 307 307 306 305 305 305 304 305 304 304 304 304
Wind_Speed
5 8 10 11 12 12 11 11 12 11 10 8 8 8 6 7 6 4 4 3 3 3 5 8 9 10 11 12 11 11 10 10 10 10 11 11 12 12 13 15 15 16 17 18 15 17 26 28 28 29 26 25 24 24 23 22 21 20 21 22 21 19 16 14 10 8 6 4 4 5 6 8 11 12 12 13 12 13 13 12 12 12 12 11 11
5 7 10 12 13 13 13 12 12 11 9 10 10 9 9 10 9 7 5 4 5 4 6 8 9 11 12 12 12 10 8 8 8 8 9 10 11 11 12 14 14 16 19 18 16 19 24 26 29 28 26 25 24 24 23 22 21 20 21 21 20 18 17 13 10 7 5 5 5 6 7 9 12 12 12 13 12 14 14 13 12 12 12 11 11
5 7 10 12 13 14 14 14 12 10 11 12 10 10 11 12 10 9 7 5 5 5 7 9 10 10 11 12 12 10 7 7 8 6 6 8 11 11 12 13 14 17 20 19 17 21 24 25 27 27 26 25 24 23 22 21 21 21 21 21 20 19 16 13 9 6 5 6 7 8 10 13 14 12 12 12 13 14 14 13 13 13 12 12 12
4 7 9 10 11 12 14 13 12 12 13 12 10 9 11 12 12 10 7 6 6 7 9 10 11 11 12 12 11 10 9 9 8 6 5 7 10 12 12 13 14 17 20 19 20 23 25 26 27 26 26 24 23 23 21 22 22 22 21 22 20 18 15 11 8 5 5 7 9 10 13 17 16 13 13 13 13 14 14 13 13 13 12 13 14
5 8 8 9 10 10 12 13 12 12 11 9 8 10 12 13 13 10 8 7 7 9 10 11 13 13 13 13 12 11 12 11 10 7 6 6 9 12 13 13 15 18 20 20 24 26 26 28 28 27 26 25 23 22 22 22 22 22 21 21 19 17 13 10 6 5 7 9 11 12 16 19 18 16 14 14 15 15 14 14 14 14 14 15 16
6 8 7 8 9 9 11 13 10 9 9 8 9 12 14 14 12 11 9 7 7 10 11 13 14 15 15 15 14 13 14 13 11 9 6 6 8 12 13 13 15 18 20 23 26 27 26 29 29 28 27 25 24 23 23 22 22 21 21 20 18 16 12 9 6 7 9 11 12 14 18 20 19 16 13 15 16 15 15 15 15 15 16 18 19
6 8 7 7 9 11 13 13 10 9 10 11 13 14 14 13 12 10 9 7 7 10 12 13 14 16 16 16 14 14 17 15 12 10 8 7 8 11 12 14 16 19 24 27 28 28 28 28 27 26 26 25 25 24 23 22 22 21 21 19 17 14 11 8 7 9 10 11 14 16 20 21 19 16 14 16 16 15 16 15 15 16 18 19 20
7 8 7 7 9 12 14 16 13 12 14 14 15 15 15 14 12 10 10 9 9 10 13 14 14 15 16 16 13 14 19 17 13 11 11 10 11 13 13 16 19 23 27 29 29 29 29 28 27 26 26 25 24 24 24 23 23 22 20 19 16 14 11 9 9 11 12 13 16 20 22 22 20 17 16 17 16 17 18 17 17 18 19 19 19
6 7 7 8 10 12 15 19 17 14 15 15 15 14 15 14 12 10 9 10 11 12 14 15 15 14 15 15 13 14 19 17 13 13 15 15 16 19 19 20 24 26 28 29 29 29 29 28 27 27 26 25 24 24 24 23 22 20 19 17 15 13 12 10 10 12 13 15 17 20 22 22 21 18 17 17 16 18 19 19 19 19 19 19 19
8 8 8 8 10 12 15 21 19 16 16 16 15 15 14 14 11 9 9 10 12 14 16 16 15 13 12 13 13 15 19 17 13 15 17 16 18 21 23 23 25 26 27 29 29 28 30 29 27 27 26 25 25 24 24 22 21 19 18 16 14 13 12 11 11 12 13 15 17 20 22 22 20 18 17 16 16 19 19 19 18 19 20 19 18
10 10 9 9 12 14 16 21 20 17 16 16 16 16 15 13 11 10 11 11 12 14 15 16 15 13 11 11 12 15 19 18 14 14 17 17 17 19 22 25 28 27 26 28 28 28 29 28 27 27 27 27 26 24 23 22 20 19 18 16 14 12 11 11 11 12 14 16 18 20 21 20 20 17 16 16 15 18 18 17 16 17 18 18 17
11 12 11 11 14 15 18 22 20 18 16 16 16 16 14 13 12 11 12 12 13 14 15 17 16 14 12 11 11 13 17 17 15 14 17 18 18 19 19 21 27 28 26 26 26 26 27 28 27 27 28 28 27 25 25 23 21 20 17 15 14 12 11 10 9 11 14 16 18 19 20 20 19 16 16 15 13 15 15 14 15 16 16 16 17
12 13 13 14 17 18 20 21 20 18 15 14 13 12 13 13 12 12 13 13 14 14 16 16 16 14 12 12 11 11 14 16 15 14 18 20 20 21 20 18 21 25 25 26 26 25 27 27 26 27 27 27 28 27 27 24 21 20 17 15 14 12 11 9 8 11 15 16 18 18 19 19 18 16 16 15 12 13 13 12 13 14 14 14 14
13 14 15 18 19 19 21 21 20 17 14 13 11 11 12 13 13 13 14 13 14 15 15 15 16 14 12 11 11 12 13 15 16 16 19 22 21 22 21 21 22 23 24 24 25 25 25 26 25 25 24 25 28 27 26 24 22 19 18 16 14 12 10 9 8 10 14 16 17 17 17 17 16 15 15 14 14 14 12 11 11 12 12 13 12
13 14 16 20 20 21 22 21 19 17 15 15 12 11 11 12 15 16 16 14 14 15 15 15 15 13 11 11 11 12 14 15 17 18 21 22 21 22 22 23 24 25 23 22 22 23 22 23 23 21 23 25 26 26 25 24 22 19 18 16 14 12 9 9 9 10 14 17 17 17 18 18 15 14 14 14 15 16 14 13 12 11 12 11 9
14 15 18 22 23 23 22 21 20 19 18 17 15 14 13 14 16 18 18 16 16 16 15 15 15 11 10 12 12 13 15 17 19 20 22 22 21 22 22 22 23 24 23 20 19 21 22 22 22 20 22 24 24 25 25 23 22 20 17 16 14 11 9 9 11 13 16 19 20 20 20 20 17 16 14 14 17 17 15 14 12 10 11 11 9
14 17 21 23 25 24 23 22 22 21 20 18 18 17 16 15 16 18 21 20 18 16 15 15 15 13 12 13 13 15 16 18 20 22 23 22 21 21 21 21 22 23 23 21 19 20 22 23 23 21 21 22 23 24 23 22 20 19 17 16 13 11 10 9 11 16 19 21 22 21 20 20 18 17 15 15 16 16 15 13 10 9 11 10 10
15 18 23 26 27 26 23 24 24 23 22 21 20 18 18 17 16 19 21 20 18 17 16 15 14 13 12 14 15 16 17 18 21 22 22 21 20 19 19 20 21 22 23 23 19 17 18 20 22 22 21 21 23 23 22 20 19 18 17 15 13 12 11 10 10 17 22 22 23 21 19 18 17 16 13 13 14 14 14 13 11 9 10 10 12
16 18 24 28 29 27 25 25 25 24 22 22 21 20 20 19 18 21 22 20 19 17 16 16 15 13 12 13 15 17 18 19 21 22 21 19 19 17 18 19 19 21 21 20 18 17 16 16 18 19 19 21 24 24 23 21 20 19 18 16 15 13 12 11 10 18 23 22 22 21 19 17 16 14 12 12 13 13 12 13 12 10 10 11 14
17 18 25 30 30 28 27 26 26 24 23 22 22 21 21 20 19 22 23 21 19 17 17 18 17 15 13 13 15 17 18 20 21 21 20 20 20 19 19 19 18 19 20 20 20 19 17 15 15 17 20 23 25 25 24 22 22 20 19 18 16 15 13 11 12 18 22 21 21 19 17 16 15 12 12 13 13 12 14 15 14 13 13 15 16
18 20 27 31 29 29 29 27 26 25 25 24 23 23 22 22 21 24 25 21 20 19 19 19 18 17 15 14 16 17 18 20 21 20 22 22 21 21 20 20 19 20 20 20 20 17 15 15 15 18 21 24 25 25 24 23 23 22 21 19 17 15 13 13 14 17 20 20 19 18 15 14 14 13 13 14 13 13 16 17 16 17 16 16 16
19 22 29 32 30 30 31 27 27 27 27 26 25 25 25 24 24 26 26 22 22 21 20 20 19 19 18 16 17 18 17 19 20 22 23 22 20 21 21 20 20 20 20 18 18 16 17 18 18 19 19 21 24 24 24 24 24 23 22 20 17 16 15 16 15 17 19 20 18 18 17 13 14 16 15 15 14 15 17 18 17 17 16 16 16
21 22 28 33 32 33 34 31 29 28 28 28 27 27 27 27 27 28 27 24 23 23 22 22 21 20 20 18 18 19 19 19 21 23 23 21 21 21 21 21 20 19 19 18 18 18 19 20 19 19 19 21 23 24 24 26 25 23 22 19 18 17 17 17 16 18 20 20 19 19 18 15 15 17 15 15 15 15 17 17 18 17 15 15 15
22 22 26 32 35 36 36 36 33 30 28 28 28 28 29 28 28 28 28 25 24 24 23 23 22 22 21 20 18 19 20 21 22 24 23 22 23 23 22 21 20 17 16 16 17 17 18 19 19 19 20 22 23 24 25 26 25 23 21 19 18 18 19 18 16 18 20 19 19 19 18 15 15 16 14 14 15 16 18 18 18 18 16 14 13
22 22 25 30 35 38 38 38 36 33 30 29 29 29 31 31 30 29 28 26 24 24 24 23 23 22 22 21 18 17 19 22 24 26 25 24 26 26 24 22 19 17 16 16 16 15 16 19 20 21 22 23 23 25 25 25 24 23 21 19 19 19 19 18 15 17 19 18 19 19 18 15 15 15 12 11 13 15 17 17 18 18 17 15 13
25 25 26 28 32 36 38 38 37 36 32 29 29 30 32 33 32 31 29 26 23 23 23 22 21 21 21 20 19 18 18 21 25 27 27 25 26 26 24 21 18 18 18 17 16 15 15 17 21 23 25 26 26 26 26 23 21 21 21 20 19 19 19 17 15 17 19 18 19 20 19 16 14 13 11 12 13 15 16 15 16 17 16 15 13
28 26 26 29 31 32 35 36 37 35 32 30 31 31 32 32 32 32 31 27 23 22 20 20 20 21 20 17 17 17 16 20 26 27 27 27 28 27 23 20 18 18 17 15 16 16 14 16 19 23 26 28 27 27 25 21 18 19 20 20 19 19 19 17 17 18 19 18 19 21 20 17 14 13 13 14 15 16 16 15 16 15 14 14 13
30 28 28 31 32 32 34 35 35 35 32 31 31 32 32 32 32 32 31 28 25 23 21 21 22 21 18 15 15 16 15 21 27 27 27 28 27 25 22 20 19 18 16 14 15 15 15 15 17 20 25 28 27 25 22 19 19 21 20 18 18 19 19 18 19 19 18 17 20 21 21 19 16 13 13 15 15 15 15 14 14 11 10 13 13
31 30 30 33 34 34 35 36 36 34 32 32 32 32 33 32 32 31 30 27 25 24 23 23 25 24 20 15 14 15 16 22 27 27 28 28 25 23 21 21 20 18 18 16 16 16 17 17 17 18 21 25 26 24 22 22 22 22 19 17 17 18 19 19 20 21 18 18 21 22 21 20 18 15 13 14 15 15 14 14 13 10 9 11 10
32 32 33 34 35 35 36 37 36 34 33 33 32 31 32 34 33 31 29 26 24 24 23 23 23 25 25 21 15 14 17 22 25 27 29 28 25 24 23 22 21 20 20 19 17 16 16 17 18 18 19 22 24 24 25 24 24 22 20 17 16 17 19 20 21 22 20 19 21 22 21 20 19 18 15 13 13 13 13 14 13 12 10 9 8
33 33 35 36 37 37 38 38 37 35 34 33 32 31 30 33 33 30 28 26 26 24 23 23 22 23 26 27 22 17 18 22 23 24 26 28 27 27 26 25 23 22 20 18 16 14 14 16 18 18 19 21 24 26 26 26 25 23 20 17 16 17 20 22 23 23 22 20 20 21 22 21 19 19 17 15 14 12 12 13 13 12 10 10 8
35 34 35 37 39 40 39 39 38 36 35 33 34 32 29 31 32 30 28 27 27 25 23 23 22 21 24 26 25 20 18 21 24 25 26 29 31 30 28 27 25 23 20 17 14 13 14 15 16 18 19 20 24 26 26 26 24 22 19 17 16 16 20 22 23 24 24 22 20 21 21 20 19 18 16 16 16 15 13 11 11 9 9 12 11
36 35 34 37 39 41 40 40 39 37 35 33 34 32 29 30 30 30 29 28 28 27 25 24 23 22 23 24 24 22 20 21 25 28 28 29 30 29 28 27 26 23 20 16 14 14 15 16 17 18 19 20 23 25 25 25 23 20 19 18 16 17 20 23 24 24 25 23 21 21 20 20 19 17 16 15 15 15 14 13 12 8 8 12 10
37 35 36 37 38 41 41 41 40 38 34 32 33 33 31 30 30 30 30 30 30 28 27 25 24 23 24 25 25 24 23 23 26 29 29 29 29 28 27 28 27 24 20 17 16 16 17 17 19 20 20 21 23 24 24 24 22 20 19 18 16 16 18 22 24 24 24 24 22 21 20 19 17 16 15 15 14 12 14 15 16 13 10 10 8
38 37 37 37 38 40 41 41 40 38 34 31 32 33 32 31 31 32 32 32 32 30 29 27 26 25 25 26 27 26 26 26 27 29 30 29 29 29 28 28 27 25 21 17 16 17 17 18 20 22 22 22 24 24 24 23 22 20 19 17 16 15 17 21 24 23 24 24 23 22 21 20 18 16 15 15 14 13 13 14 14 15 12 10 8
39 38 38 38 38 40 41 42 40 39 36 32 32 33 32 32 32 33 33 34 33 32 31 30 28 27 27 27 28 28 28 28 29 30 29 29 30 29 28 26 24 22 20 17 17 18 18 20 21 23 24 24 25 24 24 23 21 20 18 17 16 15 16 20 22 23 23 23 23 23 22 21 19 17 15 15 16 14 14 13 12 13 11 10 9
38 38 39 39 39 40 41 42 42 40 38 34 34 33 32 32 33 34 34 34 34 33 32 31 30 29 28 29 29 30 30 30 30 30 29 30 31 30 27 25 22 20 19 19 18 18 19 20 22 23 24 24 25 25 25 24 23 21 19 17 16 15 16 18 20 22 23 23 22 22 22 23 21 18 17 16 17 17 16 15 14 13 12 11 11
36 37 39 40 40 40 40 42 43 42 39 37 36 35 33 31 31 35 35 34 34 34 33 32 31 30 30 29 29 30 31 32 32 31 30 30 30 29 27 25 23 22 21 20 19 18 19 20 21 22 23 23 24 25 25 25 24 22 20 18 17 16 16 17 18 20 21 22 22 21 21 22 21 20 19 18 18 17 17 16 15 14 13 12 12
36 37 39 41 42 41 39 40 42 43 42 40 38 37 35 32 31 34 36 35 35 36 34 33 33 31 30 30 29 30 31 32 33 32 31 30 29 28 26 24 23 22 21 20 20 20 20 20 20 21 23 23 23 24 25 26 25 23 21 19 18 17 17 17 18 19 20 20 21 22 22 21 21 20 19 19 19 18 18 17 16 15 15 14 13
37 37 38 41 44 43 41 41 42 42 43 42 41 39 38 36 34 34 37 38 37 37 36 34 34 33 31 30 30 30 31 31 31 31 30 29 27 25 23 21 20 21 21 21 20 20 20 20 20 21 23 24 23 23 24 25 25 24 22 21 20 19 18 18 18 19 20 20 20 22 22 22 21 20 19 19 19 19 19 19 19 18 17 16 15
39 38 38 41 44 45 44 44 44 44 44 45 44 44 44 42 39 37 39 40 40 39 37 36 34 33 32 30 29 30 31 30 29 29 28 25 23 21 20 18 18 19 19 19 19 19 19 19 20 21 23 25 25 25 24 23 24 24 24 22 21 19 19 19 19 18 19 19 19 20 21 21 20 19 18 17 17 18 18 19 19 19 18 17 16
42 41 41 42 43 45 46 45 45 46 46 47 47 47 47 45 42 40 40 41 41 41 40 39 36 34 33 31 30 30 29 29 28 27 25 23 22 20 19 17 17 17 18 18 18 18 19 20 21 22 24 24 25 26 26 24 24 24 23 21 20 19 18 18 18 18 18 18 18 18 17 17 17 16 16 16 16 16 16 17 17 17 17 16 16
45 44 44 42 42 45 47 46 46 46 47 50 51 50 49 46 43 41 41 40 40 41 41 40 39 37 35 34 33 32 30 29 28 26 25 23 22 21 20 19 18 17 17 18 18 19 19 21 22 22 24 25 25 25 25 25 24 22 20 19 18 18 18 18 18 17 17 17 16 16 15 14 13 14 14 13 13 14 14 14 15 14 14 14 14
48 47 46 44 44 45 47 47 47 47 47 50 53 52 50 48 45 42 42 41 40 40 40 41 41 39 38 37 35 35 33 30 29 27 26 25 23 22 22 22 20 19 18 17 17 18 18 20 22 22 23 26 26 26 26 25 23 21 20 16 14 14 14 16 17 16 16 16 15 14 13 12 12 12 12 11 11 12 12 12 13 13 13 13 13
52 51 48 47 48 47 47 48 47 47 47 48 52 53 51 49 47 43 41 42 42 42 43 44 44 42 41 40 38 37 36 34 31 30 28 27 25 23 23 21 20 20 21 19 17 16 17 18 21 23 24 25 25 26 26 25 22 20 18 14 11 11 12 12 15 15 15 15 14 13 12 12 12 11 11 11 11 11 11 11 11 11 11 10 9
55 54 52 50 51 49 48 48 49 49 48 47 48 52 54 53 51 48 47 47 48 48 48 48 48 46 44 42 40 39 38 36 34 32 31 29 28 26 24 20 19 21 22 22 19 17 17 19 20 23 24 24 24 24 25 26 23 21 20 16 11 10 11 12 13 14 14 14 14 13 12 11 11 10 9 9 9 9 10 9 8 7 7 6 5
58 57 55 53 53 52 49 49 50 50 48 46 46 49 54 56 55 54 53 53 53 52 50 49 47 46 45 43 41 41 40 38 35 34 32 31 30 29 26 22 21 22 23 23 22 20 19 19 21 22 24 25 25 25 24 24 25 24 22 20 14 9 11 14 14 14 15 14 12 11 11 10 9 8 7 7 8 8 8 7 6 6 6 6 6
61 60 58 56 54 53 51 50 50 50 48 46 46 48 52 56 57 56 55 55 55 54 52 50 47 45 45 45 44 43 42 39 37 36 33 31 30 29 27 24 23 23 23 22 21 20 19 20 22 24 24 26 26 26 25 24 25 25 25 24 19 12 12 15 15 15 14 14 13 11 11 10 8 7 7 7 8 8 8 8 8 7 7 7 7
61 62 60 58 56 54 53 52 51 50 49 47 46 48 51 54 57 57 56 55 54 54 54 52 49 46 46 46 46 46 44 41 39 38 35 33 32 30 28 27 27 26 24 21 19 19 20 21 24 26 27 27 27 25 26 26 25 26 26 25 23 18 16 17 16 14 13 13 14 13 12 10 8 7 7 7 7 7 8 8 8 8 8 8 7
61 63 62 60 57 56 55 54 53 51 50 49 47 48 50 53 56 57 57 55 52 53 54 53 52 49 47 47 46 46 45 43 41 40 37 35 34 33 32 31 29 25 23 23 22 22 23 22 24 27 28 29 28 27 27 26 26 25 24 24 24 22 20 20 19 15 13 13 12 13 13 10 7 7 7 7 7 7 8 9 9 9 9 8 8
59 61 62 61 58 58 58 56 54 53 51 50 49 49 49 52 56 58 58 57 53 52 53 54 54 52 50 49 47 46 45 44 42 41 40 38 37 36 33 32 30 24 22 25 26 25 25 24 25 27 28 29 30 29 28 28 27 26 25 24 23 22 20 19 18 16 14 12 11 11 10 8 8 9 9 9 10 10 11 11 12 12 12 12 12
Wind_Direction
191 175 186 191 203 205 204 206 207 210 205 213 227 239 221 219 237 206 199 205 214 202 191 198 198 194 194 196 197 199 196 191 195 201 202 201 200 200 194 189 187 179 173 169 176 165 153 148 143 145 148 148 145 144 144 146 149 154 161 165 163 159 156 152 147 146 144 138 133 131 125 120 115 113 113 112 116 118 111 104 101 100 95 94 100
191 176 188 192 207 207 207 210 214 217 217 226 224 220 207 218 221 200 207 212 220 205 186 186 184 187 186 186 187 192 190 183 187 194 198 201 200 196 187 186 183 176 173 170 172 166 157 148 144 146 147 147 145 146 148 150 152 153 159 162 163 160 158 157 156 155 143 132 129 129 129 124 118 116 115 115 121 122 115 106 102 98 93 94 101
192 183 191 194 206 209 210 212 214 220 225 225 221 214 209 224 221 215 228 216 210 190 181 174 171 174 173 176 180 185 174 165 167 177 197 204 198 189 183 182 180 176 174 171 172 168 161 151 147 147 147 146 146 149 150 152 152 151 153 156 159 159 160 161 157 148 130 125 127 135 129 120 116 116 118 120 126 127 119 108 103 97 93 95 102
178 178 193 196 203 208 211 211 216 224 228 223 223 228 225 232 228 228 225 207 202 187 183 174 171 167 166 173 181 182 160 152 157 165 190 198 194 187 184 182 178 178 177 172 171 168 162 156 150 148 149 149 149 151 151 154 153 149 149 152 156 158 160 156 147 131 119 126 132 138 127 119 117 117 121 126 132 129 121 114 107 101 99 101 104
157 168 191 197 198 201 203 204 217 224 225 224 230 235 230 228 222 218 205 205 200 186 187 182 179 173 172 174 183 180 157 154 160 163 177 185 189 187 186 184 177 177 179 173 170 167 163 159 154 152 152 151 152 152 153 154 152 151 152 154 157 158 155 146 137 122 118 129 137 136 126 122 120 118 124 132 135 129 123 119 111 108 106 107 110
156 164 181 198 201 194 193 194 207 218 215 212 218 226 226 222 212 204 198 200 192 187 190 186 183 181 181 178 184 178 158 159 164 160 170 179 179 181 184 183 174 175 176 171 171 167 162 157 153 154 151 152 155 156 157 153 150 151 153 155 156 153 146 139 126 111 116 131 136 134 129 126 122 120 126 135 133 128 125 122 116 116 113 111 113
169 170 177 198 204 190 185 187 192 201 200 195 204 218 221 217 204 203 208 207 196 192 192 189 188 190 192 187 187 179 162 159 164 161 162 162 156 165 173 171 168 174 173 170 171 167 164 159 154 153 152 156 158 159 158 153 151 150 153 155 154 149 140 136 118 101 111 130 131 129 129 126 125 121 126 134 132 130 128 125 125 123 119 116 115
185 182 182 190 196 192 188 190 194 193 196 195 203 213 212 211 204 213 226 221 212 200 196 193 193 197 202 197 190 182 168 159 163 160 150 146 141 145 151 159 166 173 172 167 168 168 166 162 159 157 154 156 155 154 152 151 153 152 156 157 153 149 142 137 116 102 112 128 128 127 127 127 126 122 130 135 133 135 132 129 129 127 123 119 115
217 203 191 187 191 199 193 194 200 193 196 200 205 210 210 211 206 215 225 220 216 204 197 196 199 203 206 202 194 185 171 162 165 158 148 145 143 140 140 153 161 167 169 164 164 166 164 160 158 157 155 154 150 149 149 150 151 153 159 158 154 149 142 132 113 108 119 129 129 128 127 126 125 124 136 139 135 137 134 133 129 127 124 118 115
246 225 203 192 191 200 195 197 205 196 195 201 204 210 212 214 210 207 208 212 215 206 198 197 200 204 206 199 193 187 173 168 167 159 155 151 146 143 138 140 148 154 158 157 157 158 159 157 154 156 155 151 151 150 148 148 148 152 159 157 152 148 141 127 111 114 126 132 132 130 127 127 126 128 140 142 138 136 134 134 129 128 125 119 116
250 232 208 193 192 198 197 200 206 197 194 202 209 213 214 216 215 203 197 204 211 207 201 200 198 201 205 193 188 187 178 174 170 162 161 158 152 150 142 134 138 144 148 151 152 152 155 155 153 157 156 152 153 150 146 147 150 159 164 158 152 150 139 123 113 118 129 136 136 133 130 129 128 129 143 145 139 137 135 133 132 134 128 121 121
243 229 205 193 194 196 201 204 206 198 195 206 215 217 214 215 215 206 200 202 207 206 203 200 196 199 202 191 187 185 181 180 176 165 161 158 153 155 151 139 137 138 141 148 151 152 154 156 157 158 157 155 154 150 149 151 159 166 167 160 155 147 136 127 120 124 133 138 136 135 134 133 132 132 144 148 143 142 139 140 140 143 138 132 133
239 225 203 195 193 196 205 208 207 203 202 210 212 205 204 211 212 206 204 203 206 208 204 201 198 198 194 189 191 187 183 183 180 168 161 157 150 153 158 154 143 137 136 140 147 152 154 155 157 158 159 155 153 155 156 158 165 168 166 162 155 145 140 136 129 133 137 140 139 139 139 135 134 135 145 151 152 153 147 145 146 147 149 154 152
239 222 200 192 193 197 203 205 205 202 201 205 199 190 197 203 201 198 200 202 206 209 206 204 203 199 189 185 192 189 183 183 178 167 162 157 153 152 156 159 153 147 141 139 146 152 154 153 153 157 158 155 156 160 160 162 168 169 167 162 155 151 149 144 138 138 138 144 146 144 144 137 134 138 147 152 153 157 152 144 148 153 159 171 169
235 217 196 190 192 193 196 199 200 195 195 197 191 189 194 193 191 194 197 196 201 206 204 200 194 190 188 185 189 189 183 179 171 161 159 159 158 156 158 160 158 157 149 146 150 151 154 156 155 156 158 160 161 162 163 167 170 171 169 164 159 159 159 153 142 135 139 147 147 144 143 139 140 145 148 153 153 151 148 144 145 149 157 168 162
227 207 190 188 186 187 194 196 193 191 194 195 191 189 190 188 186 188 193 195 198 198 196 196 190 186 187 182 183 184 179 175 166 159 158 158 161 160 162 164 165 164 155 151 155 157 161 162 162 162 164 167 163 162 167 170 172 173 171 167 165 168 168 162 145 135 141 146 144 143 139 137 141 147 151 160 163 154 143 142 145 145 158 163 140
222 200 185 185 185 187 193 190 188 191 195 197 197 193 190 190 183 183 191 196 198 196 190 191 190 187 183 177 179 177 174 173 166 162 159 160 164 162 162 166 169 166 162 164 161 162 167 168 169 174 177 170 163 166 171 172 173 173 172 172 174 179 177 173 153 140 145 146 144 143 139 137 138 144 151 163 171 167 158 152 156 160 167 156 127
220 198 181 185 190 190 191 188 188 192 195 200 202 197 191 193 187 186 193 194 192 194 192 187 182 174 171 171 173 170 169 170 168 167 163 163 168 166 165 170 171 164 166 173 166 158 160 168 172 179 185 175 169 173 176 175 175 175 176 180 185 187 181 180 159 143 148 149 146 143 139 136 138 144 151 165 173 173 171 162 155 164 178 157 127
219 199 182 189 195 194 194 192 193 193 196 202 203 198 193 194 191 191 196 196 190 187 185 183 181 172 167 170 171 170 168 168 170 170 165 166 169 168 170 174 173 162 160 164 162 155 150 156 163 174 183 177 175 178 180 180 178 179 183 188 191 187 181 181 158 144 150 151 147 144 142 143 146 146 144 158 164 160 158 151 149 163 176 152 128
216 200 186 193 198 200 200 197 197 197 198 201 203 199 193 193 195 195 196 200 196 190 185 185 189 186 178 171 172 171 169 170 172 171 167 170 172 172 175 173 167 157 150 148 147 148 146 146 152 164 174 173 175 178 181 184 183 184 188 192 191 186 182 177 156 144 150 151 146 145 146 153 157 150 142 146 150 151 142 134 136 140 139 131 125
215 200 191 196 201 205 205 201 201 200 200 201 203 202 195 195 198 197 196 198 197 196 195 193 196 195 189 176 173 174 171 170 171 173 171 174 178 178 178 171 164 155 147 144 143 147 152 154 156 160 166 172 176 180 184 187 187 188 191 193 191 187 179 169 155 144 150 151 146 145 143 150 158 151 148 148 148 147 134 129 129 125 124 123 123
215 202 196 200 205 208 209 208 208 205 202 202 204 205 200 198 199 199 200 199 198 201 202 202 200 196 193 185 177 178 177 173 171 173 174 178 183 184 182 173 165 154 143 141 142 144 148 153 157 158 164 175 181 184 187 188 189 192 194 196 193 185 173 165 153 143 147 148 146 145 140 141 151 150 150 151 151 145 130 128 130 125 127 126 123
220 210 202 202 206 209 213 216 216 213 207 204 205 207 204 202 204 203 204 204 202 206 209 208 205 199 196 193 187 183 183 181 176 176 177 182 186 187 184 177 168 154 144 140 137 134 135 140 147 153 163 176 184 188 188 188 189 194 195 194 188 176 169 162 148 143 146 145 143 143 142 141 147 151 154 156 151 142 132 130 130 129 131 130 129
229 222 209 204 206 208 215 221 222 219 213 209 206 207 205 204 207 206 208 211 210 211 215 212 208 207 201 194 191 188 188 187 182 181 181 184 186 186 185 181 175 167 160 151 141 134 132 133 139 150 163 174 184 188 187 188 189 192 191 185 177 170 169 160 146 149 150 146 143 141 144 144 147 151 158 164 154 143 138 135 133 131 131 129 127
236 227 214 207 207 209 215 222 224 221 217 214 211 209 206 205 207 208 211 214 215 214 214 213 209 208 201 193 193 193 193 191 186 185 185 185 188 188 187 187 186 186 188 171 153 146 139 137 144 154 164 173 181 186 187 187 188 189 187 182 175 171 171 164 153 155 155 150 144 143 145 146 151 155 161 166 158 150 143 138 134 133 135 132 129
233 227 217 210 210 211 213 218 222 219 217 218 215 214 210 207 207 208 212 214 215 212 211 215 208 202 200 200 203 198 194 195 190 188 188 187 189 189 188 191 192 190 192 178 157 152 148 143 147 155 164 174 180 185 187 187 189 190 187 181 176 176 175 169 161 161 161 153 149 149 147 148 154 158 157 150 146 145 141 137 135 134 138 136 134
229 228 219 212 211 211 212 213 217 217 218 220 218 216 213 210 210 209 211 215 216 211 209 210 201 195 196 195 194 187 188 195 191 187 188 187 187 188 188 191 190 188 189 178 157 150 151 147 147 155 165 175 181 185 188 187 192 194 190 183 179 180 179 173 164 166 165 157 156 154 149 149 154 154 149 144 140 139 140 139 140 142 141 138 138
229 228 220 213 211 210 209 211 215 217 219 222 220 216 212 211 213 213 213 217 219 214 210 205 196 190 184 179 180 179 182 190 188 185 186 186 186 188 190 189 186 187 187 176 163 157 158 157 154 156 165 175 182 187 190 190 194 198 196 189 185 183 182 175 167 169 168 161 162 158 152 151 151 150 148 147 146 144 145 142 141 142 131 131 135
228 226 219 214 212 209 208 210 214 218 220 223 222 216 211 211 212 214 215 219 218 212 208 205 200 195 186 176 174 178 181 183 183 182 183 184 188 192 192 188 186 188 187 179 174 171 166 164 164 162 166 175 182 187 192 192 195 199 199 196 191 186 184 176 169 172 172 168 166 160 156 155 152 151 153 153 152 149 146 141 139 137 119 115 119
228 225 219 214 212 210 209 210 212 217 220 220 222 219 212 211 212 213 215 218 213 207 206 205 203 202 199 192 185 188 188 181 178 179 182 184 189 193 191 190 189 188 186 181 179 180 177 172 169 167 169 176 182 188 193 195 197 200 201 201 196 188 187 180 172 175 176 174 171 165 160 160 157 154 156 155 154 150 144 141 140 140 132 122 117
225 224 220 216 212 211 211 211 211 216 221 218 218 220 215 212 211 210 213 214 207 203 205 203 201 201 203 204 204 201 193 184 179 179 182 185 188 190 190 189 188 185 183 183 185 193 196 186 174 170 172 178 184 189 195 197 199 201 203 203 200 191 189 184 176 176 180 179 175 172 167 166 163 159 158 154 150 146 144 146 146 147 144 139 135
221 222 220 218 214 211 211 212 211 214 220 218 215 219 216 212 210 207 209 209 204 204 204 201 199 197 198 202 200 194 193 190 186 184 184 187 188 187 187 186 186 185 184 187 191 197 202 195 181 175 177 180 185 190 196 199 201 202 204 205 201 193 189 186 179 178 182 184 181 178 175 171 168 165 162 157 152 147 146 150 151 150 146 147 145
220 220 220 220 218 213 211 212 212 214 220 217 213 217 217 210 206 203 205 206 204 204 204 201 199 196 192 191 188 188 195 195 190 189 187 188 188 187 188 187 188 190 189 192 195 196 199 193 185 182 182 183 186 191 196 201 204 204 203 204 200 192 191 187 183 181 184 188 185 183 181 178 175 171 165 163 160 153 151 152 150 145 136 148 148
225 219 219 221 220 217 213 213 213 214 217 216 212 215 218 211 204 202 203 205 204 204 205 202 201 198 193 188 187 189 192 192 190 189 188 189 191 191 193 191 192 196 200 206 204 199 199 192 186 186 186 187 189 191 195 199 203 204 202 202 197 192 194 192 187 185 187 189 188 187 186 185 185 182 173 169 170 165 161 158 154 151 149 164 169
228 222 221 221 221 220 216 214 214 214 215 216 215 215 217 213 204 202 203 203 204 205 205 204 203 201 196 192 190 189 189 189 190 191 191 193 196 196 197 197 198 203 208 211 208 202 199 194 190 190 190 191 192 192 195 197 199 201 201 199 196 194 194 193 191 188 188 191 191 191 192 190 191 191 187 180 179 176 170 165 161 158 157 173 179
230 226 223 222 221 221 219 217 214 213 214 216 218 218 220 217 208 203 203 203 205 207 208 206 204 202 200 196 191 189 189 190 192 195 196 196 198 199 200 203 206 209 209 206 205 203 198 196 194 193 194 192 193 193 194 197 199 199 201 200 197 196 194 192 193 192 191 193 194 195 196 195 194 193 193 190 189 187 179 175 174 171 167 173 174
230 228 224 223 222 221 220 220 215 213 214 214 219 222 223 222 213 206 204 203 205 208 210 209 206 204 202 198 194 190 190 191 193 197 199 198 200 201 203 205 207 209 208 205 203 203 199 196 193 193 196 195 193 193 193 196 198 199 200 199 197 195 193 193 194 195 195 196 196 197 199 200 201 199 196 195 195 197 195 190 188 188 184 182 183
228 228 226 224 224 223 221 220 216 214 213 212 215 220 224 227 220 209 205 204 205 208 211 211 209 207 204 199 196 192 191 192 194 197 200 201 202 204 207 206 205 205 206 203 200 201 201 198 195 191 193 196 195 194 193 193 195 198 198 198 198 196 195 196 197 199 201 203 202 202 202 204 208 207 203 201 201 202 203 202 200 202 201 197 197
226 225 225 225 225 225 223 222 219 215 213 213 213 216 222 227 223 212 207 205 205 207 211 212 210 209 206 200 197 194 192 192 194 197 199 201 202 204 206 206 205 207 206 203 199 199 200 198 198 195 191 194 198 197 194 192 193 196 198 199 200 200 200 199 201 203 205 208 210 210 209 211 213 215 215 213 212 211 210 209 209 210 212 212 211
225 223 222 223 223 224 223 221 220 217 213 212 213 215 217 220 219 213 208 206 205 207 210 211 211 211 208 202 199 196 194 193 194 197 199 200 201 200 201 203 205 208 206 204 202 201 201 198 198 199 194 191 194 198 197 194 194 197 201 204 204 205 206 206 206 206 207 209 210 212 214 216 219 221 222 221 219 220 219 218 219 220 222 225 227
225 222 221 221 221 222 222 219 217 218 214 211 212 211 212 216 216 214 211 207 206 207 207 209 211 211 210 206 204 201 197 196 195 197 199 198 197 194 193 196 200 203 203 202 204 204 204 200 198 201 201 196 192 195 199 197 196 198 202 206 209 211 211 212 212 210 209 209 208 208 212 215 219 222 224 225 223 223 224 224 225 228 230 234 238
224 221 220 220 220 220 222 221 218 216 214 212 212 210 211 215 216 216 215 209 208 209 208 209 211 211 210 208 209 210 204 199 197 196 197 194 192 189 188 190 191 192 193 194 199 202 202 201 200 199 201 202 199 197 199 199 197 199 201 204 208 211 214 216 216 213 209 208 207 207 209 211 215 220 222 224 225 226 227 228 231 233 237 241 245
226 222 220 217 217 219 220 221 220 218 215 213 214 212 211 214 217 218 217 211 210 212 212 211 211 210 210 209 209 214 211 204 199 195 194 194 193 190 188 189 191 192 193 192 194 197 199 199 200 200 200 201 202 202 202 203 201 199 198 202 207 210 215 217 213 211 210 209 208 207 209 211 214 220 222 223 225 226 227 230 233 236 239 243 246
224 222 220 217 216 218 218 219 220 221 219 215 214 213 212 213 216 218 219 217 215 215 215 214 212 209 209 209 209 212 213 208 202 197 195 196 195 193 191 190 194 202 207 206 199 197 198 198 197 199 200 199 200 203 205 206 205 199 194 195 200 205 214 215 208 206 208 208 207 206 207 208 211 217 221 222 223 224 226 228 231 235 239 243 247
223 221 220 219 219 218 218 218 218 220 221 219 216 213 212 212 213 216 218 219 217 216 216 214 212 209 208 209 209 211 213 211 206 200 196 196 195 193 192 193 197 204 209 211 207 202 201 201 199 197 199 201 200 201 204 205 205 202 197 192 186 196 206 202 199 202 205 205 202 201 202 202 206 212 214 217 219 222 225 227 231 235 240 245 251
225 223 220 221 223 221 219 218 218 219 221 221 218 212 210 211 211 211 212 213 212 213 216 215 212 210 208 209 211 211 212 211 208 203 198 195 193 191 193 201 209 210 208 206 205 204 203 204 204 200 199 202 204 205 205 203 201 200 201 198 187 193 201 189 185 192 196 199 200 198 199 199 199 201 205 209 215 219 222 226 230 234 242 250 257
228 226 222 222 224 223 220 219 218 218 219 220 219 213 210 210 210 210 211 212 213 213 215 215 214 212 209 209 211 212 212 211 209 206 202 197 195 192 193 201 214 217 209 202 201 202 203 204 206 205 201 200 204 207 206 203 199 197 197 199 196 190 189 181 175 177 180 185 188 187 185 181 180 185 193 198 204 210 214 219 226 237 249 254 256
230 226 223 221 222 223 222 220 219 218 218 219 218 215 211 210 210 210 211 214 215 215 214 214 216 215 211 209 211 212 212 212 211 208 203 200 199 197 195 199 208 214 208 200 201 201 203 204 204 206 205 202 204 205 204 203 200 198 196 197 199 195 187 183 175 170 170 171 173 173 169 170 177 186 192 198 204 211 217 219 224 230 234 235 237
229 225 224 222 222 223 222 220 219 218 218 218 218 217 213 211 211 210 211 213 214 214 214 214 215 215 213 211 211 211 211 212 212 209 203 202 203 205 205 203 202 209 213 211 210 209 209 208 204 204 205 204 206 205 202 202 201 201 198 196 199 201 195 190 185 180 178 173 173 175 177 185 194 196 200 205 206 209 212 211 205 202 202 205 208
227 224 224 222 220 220 220 219 219 218 217 218 219 219 215 211 211 212 212 212 211 210 210 212 214 214 214 214 212 210 210 211 211 210 206 204 206 208 206 203 202 208 218 218 214 214 214 213 208 206 206 205 205 205 203 202 201 201 201 201 205 206 202 198 198 203 202 192 185 185 188 193 190 189 194 187 174 170 172 172 170 168 171 170 160
227 223 221 220 219 218 218 218 218 219 218 218 219 219 218 213 211 212 213 213 211 209 208 209 213 213 214 216 215 212 210 210 211 211 209 206 207 208 204 205 208 212 221 219 212 212 215 213 211 207 207 207 205 204 203 202 201 201 203 206 210 210 207 205 207 213 215 208 198 193 188 177 167 170 169 153 143 143 144 144 143 141 141 140 138